Terminal Aerodrome Forecast
Issued by NWS Albuquerque, NM

Home | Current Version | Previous Version | Text Only | Print | Product List | Glossary On
Versions: 1 2 3 4 5 6 7 8 9 10 11 12 13
000
FTUS45 KABQ 020537
TAFABQ
TAF
KABQ 020537Z 0206/0306 01011KT P6SM VCSH SCT100 SCT200
      TEMPO 0206/0208 VRB15G30KT SHRA BKN080
     FM020800 08011KT P6SM BKN100
     FM021900 VRB06KT P6SM FEW100
     FM030000 27008KT P6SM VCTS SCT100CB SCT150
     FM030200 31007KT P6SM VCSH BKN100=

USA.gov is the U.S. government's official web portal to all federal, state and local government web resources and services.